Time,TemperatureF,DewpointF,PressureIn,WindDirection,WindDirectionDegrees,WindSpeedMPH,WindSpeedGustMPH,Humidity,HourlyPrecipIn,Conditions,Clouds,dailyrainin,SoftwareType,DateUTC
2013-07-05 00:14:00,74.7,72.0,30.07,SE,131,0.0,0.0,91,0.00,,,0.00,weatherlink.com 1.10,2013-07-05 04:14:00,
2013-07-05 00:29:00,74.1,72.0,30.07,SE,131,0.0,0.0,92,0.00,,,0.00,weatherlink.com 1.10,2013-07-05 04:29:00,
2013-07-05 00:44:00,73.7,72.0,30.07,SE,131,0.0,0.0,93,0.00,,,0.00,weatherlink.com 1.10,2013-07-05 04:44:00,
2013-07-05 00:59:00,73.5,72.0,30.06,SE,131,0.0,0.0,94,0.00,,,0.00,weatherlink.com 1.10,2013-07-05 04:59:00,
2013-07-05 01:14:00,73.2,71.0,30.06,SE,131,0.0,0.0,94,0.00,,,0.00,weatherlink.com 1.10,2013-07-05 05:14:00,
2013-07-05 01:29:00,73.4,72.0,30.06,SE,131,0.0,0.0,94,0.00,,,0.00,weatherlink.com 1.10,2013-07-05 05:29:00,
2013-07-05 01:44:00,73.3,72.0,30.06,SE,131,0.0,0.0,94,0.00,,,0.00,weatherlink.com 1.10,2013-07-05 05:44:00,
2013-07-05 01:59:00,73.2,71.0,30.06,SE,131,0.0,0.0,94,0.00,,,0.00,weatherlink.com 1.10,2013-07-05 05:59:00,
2013-07-05 02:14:00,73.3,71.0,30.06,ESE,114,0.0,0.0,93,0.00,,,0.00,weatherlink.com 1.10,2013-07-05 06:14:00,
2013-07-05 02:29:00,73.1,71.0,30.06,ESE,114,0.0,0.0,94,0.00,,,0.00,weatherlink.com 1.10,2013-07-05 06:29:00,
2013-07-05 02:44:00,73.1,71.0,30.06,ESE,115,0.0,0.0,94,0.00,,,0.00,weatherlink.com 1.10,2013-07-05 06:44:00,
2013-07-05 02:59:00,73.3,71.0,30.06,ESE,116,0.0,1.0,93,0.00,,,0.00,weatherlink.com 1.10,2013-07-05 06:59:00,
2013-07-05 03:14:00,73.3,71.0,30.07,ESE,115,0.0,0.0,93,0.00,,,0.00,weatherlink.com 1.10,2013-07-05 07:14:00,
2013-07-05 03:29:00,73.3,71.0,30.07,ESE,115,0.0,1.0,93,0.00,,,0.00,weatherlink.com 1.10,2013-07-05 07:29:00,
2013-07-05 03:44:00,72.8,71.0,30.07,ESE,115,0.0,0.0,94,0.00,,,0.00,weatherlink.com 1.10,2013-07-05 07:44:00,
2013-07-05 04:00:00,72.6,71.0,30.07,ESE,115,0.0,0.0,95,0.00,,,0.00,weatherlink.com 1.10,2013-07-05 08:00:00,
2013-07-05 04:15:00,72.5,71.0,30.07,ESE,115,0.0,0.0,95,0.00,,,0.00,weatherlink.com 1.10,2013-07-05 08:15:00,
2013-07-05 04:30:00,72.6,71.0,30.07,ESE,116,0.0,0.0,95,0.00,,,0.00,weatherlink.com 1.10,2013-07-05 08:30:00,
2013-07-05 04:45:00,72.7,71.0,30.08,ESE,116,0.0,0.0,95,0.00,,,0.00,weatherlink.com 1.10,2013-07-05 08:45:00,
2013-07-05 05:00:00,72.5,71.0,30.08,ESE,115,0.0,0.0,95,0.00,,,0.00,weatherlink.com 1.10,2013-07-05 09:00:00,
2013-07-05 05:15:00,72.4,71.0,30.08,SSE,158,0.0,0.0,95,0.00,,,0.00,weatherlink.com 1.10,2013-07-05 09:15:00,
2013-07-05 05:30:00,72.1,71.0,30.09,SSE,158,0.0,1.0,96,0.00,,,0.00,weatherlink.com 1.10,2013-07-05 09:30:00,
2013-07-05 05:45:00,71.8,71.0,30.09,SSE,158,0.0,0.0,96,0.00,,,0.00,weatherlink.com 1.10,2013-07-05 09:45:00,
2013-07-05 06:00:00,71.6,71.0,30.09,SSE,158,0.0,0.0,97,0.00,,,0.00,weatherlink.com 1.10,2013-07-05 10:00:00,
2013-07-05 06:45:00,72.5,72.0,30.09,SSE,158,0.0,1.0,97,0.00,,,0.00,weatherlink.com 1.10,2013-07-05 10:45:00,
2013-07-05 07:00:00,73.1,72.0,30.09,SSE,158,0.0,0.0,96,0.00,,,0.00,weatherlink.com 1.10,2013-07-05 11:00:00,
2013-07-05 07:30:00,74.3,73.0,30.10,South,172,0.0,2.0,94,0.00,,,0.00,weatherlink.com 1.10,2013-07-05 11:30:00,
2013-07-05 07:45:00,75.1,73.0,30.10,SE,142,0.0,1.0,92,0.00,,,0.00,weatherlink.com 1.10,2013-07-05 11:45:00,
2013-07-05 08:15:00,76.5,74.0,30.10,SSE,153,1.0,1.0,90,0.00,,,0.00,weatherlink.com 1.10,2013-07-05 12:15:00,
2013-07-05 08:30:00,77.4,74.0,30.10,SE,146,1.0,2.0,88,0.00,,,0.00,weatherlink.com 1.10,2013-07-05 12:30:00,
2013-07-05 09:00:00,78.7,74.0,30.10,SSE,162,1.0,2.0,86,0.00,,,0.00,weatherlink.com 1.10,2013-07-05 13:00:00,
2013-07-05 09:15:00,79.6,75.0,30.09,SSE,167,0.0,1.0,85,0.00,,,0.00,weatherlink.com 1.10,2013-07-05 13:15:00,
2013-07-05 09:30:00,80.4,75.0,30.09,SW,236,0.0,2.0,83,0.00,,,0.00,weatherlink.com 1.10,2013-07-05 13:30:00,
2013-07-05 10:00:00,82.0,75.0,30.09,SSE,167,1.0,2.0,79,0.00,,,0.00,weatherlink.com 1.10,2013-07-05 14:00:00,
2013-07-05 10:30:00,84.6,76.0,30.09,SW,232,1.0,4.0,74,0.00,,,0.00,weatherlink.com 1.10,2013-07-05 14:30:00,
2013-07-05 10:45:00,85.5,75.0,30.08,ESE,113,0.0,3.0,71,0.00,,,0.00,weatherlink.com 1.10,2013-07-05 14:45:00,
2013-07-05 11:00:00,85.9,76.0,30.08,SSE,155,1.0,2.0,72,0.00,,,0.00,weatherlink.com 1.10,2013-07-05 15:00:00,
2013-07-05 11:15:00,87.4,76.0,30.07,SW,214,1.0,5.0,68,0.00,,,0.00,weatherlink.com 1.10,2013-07-05 15:15:00,
2013-07-05 11:30:00,87.8,76.0,30.07,ESE,109,2.0,2.0,68,0.00,,,0.00,weatherlink.com 1.10,2013-07-05 15:30:00,
2013-07-05 11:45:00,87.9,75.0,30.07,SE,141,2.0,6.0,66,0.00,,,0.00,weatherlink.com 1.10,2013-07-05 15:45:00,
2013-07-05 12:00:00,88.3,75.0,30.06,SW,218,0.0,2.0,64,0.00,,,0.00,weatherlink.com 1.10,2013-07-05 16:00:00,
2013-07-05 12:15:00,88.3,76.0,30.06,ESE,105,0.0,1.0,68,0.00,,,0.00,weatherlink.com 1.10,2013-07-05 16:15:00,
2013-07-05 12:30:00,89.2,74.0,30.06,SE,134,0.0,7.0,62,0.00,,,0.00,weatherlink.com 1.10,2013-07-05 16:30:00,
2013-07-05 12:45:00,88.1,75.0,30.05,SW,214,0.0,2.0,66,0.00,,,0.00,weatherlink.com 1.10,2013-07-05 16:45:00,
2013-07-05 13:00:00,87.3,76.0,30.05,East,91,0.0,2.0,69,0.00,,,0.00,weatherlink.com 1.10,2013-07-05 17:00:00,
2013-07-05 13:15:00,88.0,77.0,30.05,South,170,0.0,3.0,69,0.00,,,0.00,weatherlink.com 1.10,2013-07-05 17:15:00,
2013-07-05 13:30:00,88.6,76.0,30.03,SE,124,0.0,4.0,67,0.00,,,0.00,weatherlink.com 1.10,2013-07-05 17:30:00,
2013-07-05 13:45:00,89.6,75.0,30.03,SSW,202,3.0,6.0,62,0.00,,,0.00,weatherlink.com 1.10,2013-07-05 17:45:00,
2013-07-05 14:00:00,90.5,75.0,30.03,SE,125,0.0,5.0,61,0.00,,,0.00,weatherlink.com 1.10,2013-07-05 18:00:00,
2013-07-05 14:16:00,90.3,75.0,30.02,South,169,0.0,4.0,61,0.00,,,0.00,weatherlink.com 1.10,2013-07-05 18:16:00,
2013-07-05 14:31:00,91.1,75.0,30.02,SSE,150,0.0,6.0,59,0.00,,,0.00,weatherlink.com 1.10,2013-07-05 18:31:00,
2013-07-05 14:46:00,90.1,75.0,30.02,SSE,156,0.0,6.0,62,0.00,,,0.00,weatherlink.com 1.10,2013-07-05 18:46:00,
2013-07-05 15:01:00,89.2,75.0,30.01,SE,132,0.0,4.0,64,0.00,,,0.00,weatherlink.com 1.10,2013-07-05 19:01:00,
2013-07-05 15:16:00,89.9,75.0,30.01,SSE,159,3.0,4.0,61,0.00,,,0.00,weatherlink.com 1.10,2013-07-05 19:16:00,
2013-07-05 15:31:00,90.1,75.0,30.00,WSW,246,0.0,5.0,62,0.00,,,0.00,weatherlink.com 1.10,2013-07-05 19:31:00,
2013-07-05 15:46:00,89.2,75.0,30.00,ESE,105,4.0,4.0,64,0.00,,,0.00,weatherlink.com 1.10,2013-07-05 19:46:00,
2013-07-05 16:01:00,88.6,75.0,29.99,SSE,158,0.0,3.0,64,0.00,,,0.00,weatherlink.com 1.10,2013-07-05 20:01:00,
2013-07-05 16:16:00,87.4,74.0,30.00,East,100,0.0,1.0,65,0.00,,,0.00,weatherlink.com 1.10,2013-07-05 20:16:00,
2013-07-05 16:31:00,88.1,75.0,29.99,SE,136,3.0,5.0,66,0.00,,,0.00,weatherlink.com 1.10,2013-07-05 20:31:00,
2013-07-05 16:46:00,88.3,74.0,29.99,ESE,112,0.0,5.0,62,0.00,,,0.00,weatherlink.com 1.10,2013-07-05 20:46:00,
2013-07-05 17:01:00,87.9,73.0,29.99,West,263,1.0,3.0,62,0.00,,,0.00,weatherlink.com 1.10,2013-07-05 21:01:00,
2013-07-05 17:16:00,87.7,75.0,29.98,East,99,1.0,2.0,65,0.00,,,0.00,weatherlink.com 1.10,2013-07-05 21:16:00,
2013-07-05 17:31:00,87.4,74.0,29.98,West,278,0.0,3.0,64,0.00,,,0.00,weatherlink.com 1.10,2013-07-05 21:31:00,
2013-07-05 17:46:00,86.8,74.0,29.98,SSE,156,0.0,2.0,66,0.00,,,0.00,weatherlink.com 1.10,2013-07-05 21:46:00,
2013-07-05 18:01:00,86.6,75.0,29.98,SE,131,0.0,6.0,68,0.00,,,0.00,weatherlink.com 1.10,2013-07-05 22:01:00,
2013-07-05 18:16:00,85.9,75.0,29.98,WSW,240,0.0,5.0,70,0.00,,,0.00,weatherlink.com 1.10,2013-07-05 22:16:00,
2013-07-05 18:31:00,85.7,74.0,29.98,East,98,0.0,3.0,68,0.00,,,0.00,weatherlink.com 1.10,2013-07-05 22:31:00,
2013-07-05 18:46:00,84.6,74.0,29.99,SSE,160,0.0,0.0,71,0.00,,,0.00,weatherlink.com 1.10,2013-07-05 22:46:00,
2013-07-05 19:01:00,83.1,75.0,29.98,SSE,160,0.0,1.0,76,0.00,,,0.00,weatherlink.com 1.10,2013-07-05 23:01:00,
2013-07-05 19:16:00,82.3,75.0,29.98,SE,138,0.0,1.0,79,0.00,,,0.00,weatherlink.com 1.10,2013-07-05 23:16:00,
2013-07-05 19:31:00,81.6,75.0,29.97,SE,137,0.0,1.0,81,0.00,,,0.00,weatherlink.com 1.10,2013-07-05 23:31:00,
2013-07-05 19:46:00,80.6,75.0,29.97,SE,136,0.0,1.0,82,0.00,,,0.00,weatherlink.com 1.10,2013-07-05 23:46:00,
2013-07-05 20:01:00,80.1,73.0,29.97,SE,136,0.0,0.0,80,0.00,,,0.00,weatherlink.com 1.10,2013-07-06 00:01:00,
2013-07-05 20:16:00,79.8,74.0,29.97,SE,136,0.0,0.0,81,0.00,,,0.00,weatherlink.com 1.10,2013-07-06 00:16:00,
2013-07-05 20:31:00,79.5,74.0,29.97,SE,136,0.0,0.0,82,0.00,,,0.00,weatherlink.com 1.10,2013-07-06 00:31:00,
2013-07-05 20:46:00,78.9,73.0,29.97,SE,137,0.0,0.0,81,0.00,,,0.00,weatherlink.com 1.10,2013-07-06 00:46:00,
2013-07-05 21:01:00,78.7,72.0,29.99,SE,137,0.0,0.0,81,0.00,,,0.00,weatherlink.com 1.10,2013-07-06 01:01:00,
2013-07-05 21:16:00,78.3,72.0,29.99,SE,136,0.0,0.0,81,0.00,,,0.00,weatherlink.com 1.10,2013-07-06 01:16:00,
2013-07-05 21:31:00,78.1,72.0,30.00,SE,136,0.0,0.0,82,0.00,,,0.00,weatherlink.com 1.10,2013-07-06 01:31:00,
2013-07-05 21:46:00,77.8,72.0,30.00,SE,136,0.0,0.0,83,0.00,,,0.00,weatherlink.com 1.10,2013-07-06 01:46:00,
2013-07-05 22:01:00,77.6,73.0,30.00,SE,136,0.0,0.0,84,0.00,,,0.00,weatherlink.com 1.10,2013-07-06 02:01:00,
2013-07-05 22:16:00,77.6,73.0,29.99,SE,136,0.0,0.0,85,0.00,,,0.00,weatherlink.com 1.10,2013-07-06 02:16:00,
2013-07-05 22:31:00,77.3,73.0,29.99,SE,136,0.0,0.0,86,0.00,,,0.00,weatherlink.com 1.10,2013-07-06 02:31:00,
2013-07-05 22:46:00,77.0,73.0,29.99,SE,136,0.0,0.0,86,0.00,,,0.00,weatherlink.com 1.10,2013-07-06 02:46:00,
2013-07-05 23:01:00,76.6,73.0,29.99,SE,136,0.0,1.0,88,0.00,,,0.00,weatherlink.com 1.10,2013-07-06 03:01:00,
2013-07-05 23:17:00,76.8,73.0,30.00,SE,136,0.0,1.0,88,0.00,,,0.00,weatherlink.com 1.10,2013-07-06 03:17:00,
2013-07-05 23:32:00,76.1,73.0,30.00,SE,136,0.0,0.0,90,0.00,,,0.00,weatherlink.com 1.10,2013-07-06 03:32:00,
2013-07-05 23:47:00,75.3,73.0,30.00,SE,136,0.0,0.0,91,0.00,,,0.00,weatherlink.com 1.10,2013-07-06 03:47:00,